Home > Weather > Oradea > Past weeks

Flag for Romania Weather for the Past 2 Weeks in Oradea, Romania

Now
41 °F

Overcast.


Feels Like: 36 °F
Forecast: 52 / 56 °F
Wind: 8 mph from South

Location: Oradea Airport

Current Time: Feb 14, 2016 at 6:31:14 AM

Latest Report: Feb 14, 2016 at 6:00 AM


Visibility: N/A

Pressure: 29.50 "Hg

Humidity: 87%

Dew point: 37 °F

Location of OradeaLocation

Historic Weather in Oradea — Graph

°F

Oradea Temperature Yesterday

Maximum temperature yesterday: 54 °F (at 11:30 AM)
Minimum temperature yesterday: 43 °F (at 12:00 AM)
Average temperature yesterday: 46 °F

High & Low Weather Summary for the Past Weeks

 TemperatureHumidityPressure
High55 °F (Feb 10, 12:00 AM)100% (Jan 30, 5:00 AM)30.45 "Hg (Jan 30, 5:00 AM)
Low28 °F (Feb 6, 2:00 AM)40% (Feb 12, 5:00 PM)29.21 "Hg (Feb 10, 4:00 PM)
Average44 °F77%29.96 "Hg
* Reported Jan 30 5:00 AM — Feb 14 5:00 AM, Oradea, Weather by CustomWeather, © 2016

Note: Actual official high and low records may vary slightly from our data, if they occured in-between our weather recording intervals... More about our weather records

Advertising

Oradea Weather History for the Previous 24 Hours

 ConditionsComfort  
Time TempWeatherWind HumidityBarometerVisibility
5:00 AM
Sun, Feb 14
39 °FPartly cloudy.9 mph93%29.47 "HgN/A
4:00 AM39 °FPassing clouds.9 mph93%29.47 "HgN/A
3:00 AM39 °FPassing clouds.9 mph93%29.47 "Hg4 mi
2:00 AM41 °FLow clouds.10 mph93%29.50 "Hg4 mi
1:00 AM43 °FFog.15 mph93%29.47 "Hg3 mi
12:00 AM43 °FFog.13 mph93%29.45 "Hg3 mi
11:00 PM
Sat, Feb 13
43 °FPassing clouds.17 mph93%29.45 "Hg6 mi
10:30 PM43 °FPartly cloudy.15 mph93%29.42 "HgN/A
10:00 PM45 °FPassing clouds.16 mph87%29.42 "HgN/A
9:30 PM45 °FPassing clouds.15 mph87%29.39 "HgN/A
9:00 PM45 °FPassing clouds.15 mph87%29.39 "HgN/A
8:30 PM45 °FPassing clouds.13 mph93%29.39 "HgN/A
8:00 PM45 °FPartly cloudy.13 mph93%29.39 "HgN/A
7:30 PM45 °FPassing clouds.16 mph93%29.39 "HgN/A
7:00 PM45 °FLight rain. Passing clouds.16 mph93%29.39 "HgN/A
6:30 PM45 °FLight rain. Partly cloudy.14 mph93%29.39 "HgN/A
6:00 PM46 °FLight rain. Partly cloudy.16 mph87%29.39 "HgN/A
5:30 PM46 °FLight rain. Broken clouds.16 mph87%29.39 "HgN/A
5:00 PM46 °FLight rain. Broken clouds.16 mph87%29.36 "HgN/A
4:30 PM46 °FLight rain. Broken clouds.7 mph93%29.36 "HgN/A
4:00 PM46 °FLight rain. Partly sunny.7 mph93%29.36 "HgN/A
3:30 PM46 °FLight rain. Broken clouds.6 mph93%29.36 "Hg6 mi
3:00 PM46 °FLight rain. Overcast.8 mph87%29.36 "HgN/A
2:30 PM46 °FLight rain. Overcast.7 mph87%29.36 "Hg5 mi
2:00 PM46 °FLight rain. Overcast.5 mph87%29.39 "Hg4 mi
1:30 PM46 °FLight rain. Overcast.2 mph87%29.39 "Hg4 mi
1:00 PM48 °FLight rain. Partly sunny.6 mph76%29.39 "HgN/A
12:30 PM50 °FLight rain. Partly sunny.5 mph67%29.39 "HgN/A
12:00 PM52 °FLight rain. Partly sunny.7 mph58%29.42 "HgN/A
11:30 AM54 °FPassing clouds.8 mph51%29.42 "HgN/A
11:00 AM52 °FSunny.13 mph50%29.42 "Hg10 mi
10:30 AM50 °FSunny.12 mph54%29.42 "Hg10 mi
10:00 AM50 °FSunny.10 mph54%29.45 "Hg10 mi
9:30 AM48 °FSunny.10 mph54%29.45 "Hg10 mi
9:00 AM48 °FSunny.10 mph54%29.45 "Hg10 mi
8:30 AM46 °FSunny.10 mph57%29.45 "Hg10 mi
8:00 AM45 °FLight rain. Clear.8 mph61%29.47 "HgN/A
7:30 AM45 °FPassing clouds.7 mph61%29.47 "HgN/A
7:00 AM45 °FClear.8 mph61%29.50 "Hg10 mi
6:30 AM45 °FPartly cloudy.8 mph57%29.50 "HgN/A
6:00 AM45 °FPartly cloudy.6 mph57%29.53 "HgN/A
Weather by CustomWeather, © 2016

See weather overviewHow to use our weather pages